User: anonymous   Login
Location: Caltech
(34.1382°N, 118.1253°W)
Time: 05:50:36
(UTC-07:00)
Language:

Cosmos 1484 Rocket - Orbit

View from above orbital plane
View from above orbital plane
View from above satellite
View from above satellite

Ground track
Ground track

The orbit data is extracted from the following two-line orbital elements,

1 14208U 83075B   16180.54604092  .00000380  00000-0  26899-4 0  9993
2 14208  97.3542 199.4701 0038079 270.9284  88.7583 15.09969195794134
Epoch (UTC): 28 June 2016 13:06:17
Eccentricity: 0.0038079
inclination: 97.3542°
perigee height: 510 km
apogee height: 562 km
right ascension of ascending node: 199.4701°
argument of perigee: 270.9284°
revolutions per day: 15.09969195
mean anomaly at epoch: 88.7583°
orbit number at epoch: 79413

The dashed part of the orbit path shows where the satellite is in the earth's shadow,  

DLR